sat.trackr.live / text

‹ back to catalog

STARLINK-37539

NORAD 68845 · 2026-094G

PAYLOAD ACTIVE UNKNOWN

§ Identity

Operator
Country
US
Launch date
2026-04-26
Launch site
AFWTR
Launch vehicle
Mass (kg)
RCS (m²)

Purposes: comms

External: N2YO · Heavens-Above · Gunter

§ Orbital elements

Epoch: 2026-05-25T04:00:03.998880Z

Period
92.95 min
Inclination
97.2848°
Eccentricity
0.0001202
Mean motion
15.49176144 rev/d
Perigee alt
418.3 km
Apogee alt
420.0 km
Semi-major
6,797.3 km
B*
1.6266e-4
RAAN
159.8742°
Arg perigee
81.5382°
Mean anomaly
13.8200°
Rev number
567

§ Raw data

STARLINK-375391 68845U 26094G   26145.16671295  .00008762  00000+0  16266-3 0  99932 68845  97.2848 159.8742 0001202  81.5382  13.8200 15.49176144  5673

JSON: /api/v1/satellites/68845 · /tle

For live sub-satellite position, see the globe view (requires WebGL).

§ Visibility from observer

Set your observer location to see the next 7 days of passes ≥ 10°. The values pass through the URL so the page stays shareable.

No JS? Fill the form by hand. The geolocation button needs JavaScript.